PTO912 EDDH-EDDV

Flight info

Callsign PTO912
Flight time 0h 41m
Altitude 7000
Route IDEKO7G/33 IDEKO N850 NIE NIE1R
Aircraft DA42/L-SDFGRY/C

Departure

Time 2026-05-04 20:38
Airport Hamburg Helmut Schmidt Airport (EDDH)

Arrival

Time 2026-05-04 21:19
Airport Hannover Airport (EDDV)
Time Latitude Longitude Altitude Speed Heading
2026-05-04 20:20 53.62646 9.98778 41 ft 0 kts 62°
2026-05-04 20:35 53.62654 9.98770 41 ft 3 kts 289°
2026-05-04 20:35 53.62668 9.98711 41 ft 6 kts 296°
2026-05-04 20:35 53.62713 9.98636 41 ft 9 kts 338°
2026-05-04 20:35 53.62766 9.98694 41 ft 11 kts 50°
2026-05-04 20:36 53.62832 9.98840 41 ft 17 kts 54°
2026-05-04 20:36 53.62902 9.98982 41 ft 15 kts 53°
2026-05-04 20:36 53.62969 9.99112 41 ft 15 kts 50°
2026-05-04 20:36 53.63040 9.99225 41 ft 13 kts 27°
2026-05-04 20:37 53.63133 9.99309 41 ft 20 kts 13°
2026-05-04 20:37 53.63310 9.99354 41 ft 33 kts 344°
2026-05-04 20:37 53.63657 9.99065 51 ft 78 kts 331°
2026-05-04 20:37 53.64196 9.98609 198 ft 99 kts 331°
2026-05-04 20:38 53.64777 9.98059 592 ft 93 kts 329°
2026-05-04 20:38 53.65352 9.97466 844 ft 104 kts 328°
2026-05-04 20:38 53.65981 9.96800 1168 ft 106 kts 329°
2026-05-04 20:38 53.66603 9.96148 1513 ft 106 kts 328°
2026-05-04 20:39 53.67242 9.95486 1847 ft 110 kts 328°
2026-05-04 20:39 53.67888 9.94815 2208 ft 108 kts 326°
2026-05-04 20:39 53.68533 9.94152 2563 ft 109 kts 325°
2026-05-04 20:39 53.69185 9.93482 2917 ft 111 kts 324°
2026-05-04 20:40 53.69844 9.92797 3277 ft 112 kts 324°
2026-05-04 20:40 53.70513 9.92098 3585 ft 118 kts 324°
2026-05-04 20:40 53.71270 9.91293 3688 ft 136 kts 324°
2026-05-04 20:40 53.72067 9.90444 3990 ft 135 kts 321°
2026-05-04 20:41 53.72546 9.89168 4266 ft 129 kts 275°
2026-05-04 20:41 53.72294 9.87774 4565 ft 128 kts 229°
2026-05-04 20:41 53.71586 9.86871 4873 ft 128 kts 219°
2026-05-04 20:41 53.70933 9.85801 4992 ft 139 kts 233°
2026-05-04 20:42 53.70477 9.84272 4997 ft 152 kts 248°
2026-05-04 20:42 53.70112 9.82548 4998 ft 159 kts 250°
2026-05-04 20:42 53.69761 9.80762 5055 ft 160 kts 251°
2026-05-04 20:42 53.69412 9.78985 5121 ft 160 kts 251°
2026-05-04 20:43 53.69059 9.77200 5182 ft 160 kts 250°
2026-05-04 20:43 53.68714 9.75455 5446 ft 148 kts 250°
2026-05-04 20:43 53.68407 9.73895 5823 ft 138 kts 251°
2026-05-04 20:43 53.68100 9.72337 6023 ft 141 kts 251°
2026-05-04 20:44 53.67796 9.70789 6251 ft 141 kts 251°
2026-05-04 20:44 53.67485 9.69215 6478 ft 141 kts 251°
2026-05-04 20:44 53.67176 9.67644 6707 ft 141 kts 251°
2026-05-04 20:44 53.66864 9.66067 6921 ft 142 kts 251°
2026-05-04 20:45 53.66544 9.64445 6988 ft 152 kts 251°
2026-05-04 20:45 53.66201 9.62707 6988 ft 160 kts 251°
2026-05-04 20:45 53.65833 9.60901 6985 ft 165 kts 247°
2026-05-04 20:45 53.65209 9.59275 6983 ft 168 kts 229°
2026-05-04 20:46 53.64270 9.58088 6986 ft 171 kts 210°
2026-05-04 20:46 53.63119 9.57519 6986 ft 175 kts 191°
2026-05-04 20:46 53.61908 9.57270 6987 ft 176 kts 190°
2026-05-04 20:46 53.60691 9.57035 6983 ft 176 kts 189°
2026-05-04 20:47 53.59473 9.56798 6985 ft 176 kts 189°
2026-05-04 20:47 53.58254 9.56559 6985 ft 176 kts 189°
2026-05-04 20:47 53.57032 9.56317 6985 ft 176 kts 189°
2026-05-04 20:47 53.55812 9.56075 6986 ft 176 kts 189°
2026-05-04 20:48 53.54594 9.55834 6984 ft 176 kts 189°
2026-05-04 20:48 53.53375 9.55594 6983 ft 176 kts 189°
2026-05-04 20:48 53.52179 9.55358 6983 ft 176 kts 189°
2026-05-04 20:48 53.50987 9.55122 6987 ft 165 kts 189°
2026-05-04 20:49 53.49869 9.54903 6989 ft 158 kts 189°
2026-05-04 20:49 53.48787 9.54690 6988 ft 155 kts 189°
2026-05-04 20:49 53.47725 9.54480 6988 ft 153 kts 190°
2026-05-04 20:49 53.46677 9.54274 6989 ft 151 kts 190°
2026-05-04 20:50 53.45636 9.54068 6986 ft 150 kts 190°
2026-05-04 20:50 53.44598 9.53864 6985 ft 150 kts 190°
2026-05-04 20:50 53.43564 9.53660 6980 ft 149 kts 190°
2026-05-04 20:50 53.42532 9.53466 6977 ft 150 kts 186°
2026-05-04 20:51 53.41511 9.53871 6987 ft 153 kts 164°
2026-05-04 20:51 53.40514 9.54500 6987 ft 153 kts 163°
2026-05-04 20:51 53.39516 9.55125 6988 ft 153 kts 164°
2026-05-04 20:51 53.38514 9.55738 6988 ft 153 kts 164°
2026-05-04 20:52 53.37511 9.56346 6991 ft 154 kts 164°
2026-05-04 20:52 53.36504 9.56955 6991 ft 154 kts 164°
2026-05-04 20:52 53.35498 9.57563 6983 ft 154 kts 164°
2026-05-04 20:52 53.34493 9.58171 6980 ft 154 kts 164°
2026-05-04 20:53 53.33486 9.58779 6983 ft 154 kts 164°
2026-05-04 20:53 53.32483 9.59384 6983 ft 154 kts 164°
2026-05-04 20:53 53.31478 9.59990 6984 ft 154 kts 164°
2026-05-04 20:53 53.30471 9.60597 6984 ft 154 kts 164°
2026-05-04 20:54 53.29448 9.61213 6984 ft 154 kts 164°
2026-05-04 20:54 53.28454 9.61812 6984 ft 154 kts 164°
2026-05-04 20:54 53.27444 9.62420 6984 ft 154 kts 164°
2026-05-04 20:54 53.26433 9.63028 6984 ft 154 kts 164°
2026-05-04 20:55 53.25422 9.63636 6984 ft 154 kts 164°
2026-05-04 20:55 53.24413 9.64243 6985 ft 154 kts 164°
2026-05-04 20:55 53.23403 9.64849 6984 ft 154 kts 164°
2026-05-04 20:55 53.22390 9.65458 6979 ft 154 kts 164°
2026-05-04 20:56 53.21379 9.66065 6978 ft 154 kts 164°
2026-05-04 20:56 53.20367 9.66672 6978 ft 154 kts 164°
2026-05-04 20:56 53.19359 9.67276 6978 ft 154 kts 164°
2026-05-04 20:56 53.18348 9.67882 6978 ft 154 kts 164°
2026-05-04 20:57 53.17338 9.68487 6978 ft 154 kts 164°
2026-05-04 20:57 53.16342 9.69083 6978 ft 154 kts 164°
2026-05-04 20:57 53.15333 9.69687 6978 ft 154 kts 164°
2026-05-04 20:57 53.14323 9.70291 6975 ft 154 kts 164°
2026-05-04 20:58 53.13316 9.70892 6976 ft 154 kts 164°
2026-05-04 20:58 53.12307 9.71495 6975 ft 154 kts 164°
2026-05-04 20:58 53.11298 9.72098 6975 ft 154 kts 164°
2026-05-04 20:58 53.10288 9.72701 6975 ft 154 kts 164°
2026-05-04 20:59 53.09278 9.73304 6975 ft 154 kts 164°
2026-05-04 20:59 53.08265 9.73907 6974 ft 154 kts 164°
2026-05-04 20:59 53.07254 9.74510 6974 ft 154 kts 164°
2026-05-04 20:59 53.06244 9.75111 6974 ft 154 kts 164°
2026-05-04 21:00 53.05235 9.75712 6973 ft 154 kts 164°
2026-05-04 21:00 53.04223 9.76314 6972 ft 154 kts 164°
2026-05-04 21:00 53.03208 9.76918 6972 ft 155 kts 164°
2026-05-04 21:00 53.02197 9.77518 6971 ft 154 kts 164°
2026-05-04 21:01 53.01187 9.78119 6973 ft 154 kts 164°
2026-05-04 21:01 53.00176 9.78719 6969 ft 154 kts 164°
2026-05-04 21:01 52.99168 9.79318 6969 ft 154 kts 164°
2026-05-04 21:01 52.98175 9.79908 6975 ft 154 kts 164°
2026-05-04 21:02 52.97151 9.80514 6969 ft 154 kts 164°
2026-05-04 21:02 52.96142 9.81112 6970 ft 154 kts 164°
2026-05-04 21:02 52.95145 9.81703 6969 ft 154 kts 164°
2026-05-04 21:02 52.94137 9.82300 6968 ft 154 kts 164°
2026-05-04 21:03 52.93129 9.82896 6967 ft 154 kts 164°
2026-05-04 21:03 52.92117 9.83477 6966 ft 153 kts 167°
2026-05-04 21:03 52.91090 9.83949 6968 ft 153 kts 169°
2026-05-04 21:03 52.90064 9.84407 6968 ft 153 kts 169°
2026-05-04 21:04 52.89036 9.84864 6969 ft 153 kts 169°
2026-05-04 21:04 52.88008 9.85321 6969 ft 153 kts 169°
2026-05-04 21:04 52.86977 9.85778 6969 ft 153 kts 169°
2026-05-04 21:04 52.85950 9.86233 6968 ft 153 kts 169°
2026-05-04 21:05 52.84920 9.86691 6968 ft 153 kts 169°
2026-05-04 21:05 52.83887 9.87149 6960 ft 154 kts 168°
2026-05-04 21:05 52.82856 9.87592 6960 ft 154 kts 169°
2026-05-04 21:05 52.81820 9.88036 6960 ft 154 kts 169°
2026-05-04 21:06 52.81131 9.88331 6960 ft 154 kts 169°
2026-05-04 21:06 52.79746 9.88922 6960 ft 154 kts 169°
2026-05-04 21:06 52.79064 9.89213 6960 ft 153 kts 169°
2026-05-04 21:06 52.78027 9.89653 6960 ft 153 kts 169°
2026-05-04 21:07 52.76992 9.90095 6960 ft 153 kts 169°
2026-05-04 21:07 52.75959 9.90536 6960 ft 153 kts 169°
2026-05-04 21:07 52.74590 9.91121 6960 ft 153 kts 169°
2026-05-04 21:07 52.73892 9.91418 6960 ft 153 kts 169°
2026-05-04 21:08 52.72861 9.91879 6975 ft 155 kts 161°
2026-05-04 21:08 52.71960 9.92871 6982 ft 156 kts 150°
2026-05-04 21:08 52.71018 9.93763 6888 ft 161 kts 156°
2026-05-04 21:08 52.69998 9.94580 6767 ft 165 kts 158°
2026-05-04 21:09 52.68950 9.95378 6647 ft 167 kts 159°
2026-05-04 21:09 52.67890 9.96180 6523 ft 168 kts 159°
2026-05-04 21:09 52.66801 9.97003 6274 ft 175 kts 158°
2026-05-04 21:09 52.65684 9.97849 6015 ft 178 kts 158°
2026-05-04 21:10 52.64550 9.98709 5753 ft 180 kts 158°
2026-05-04 21:10 52.63407 9.99576 5490 ft 181 kts 158°
2026-05-04 21:10 52.62263 10.00444 5250 ft 181 kts 158°
2026-05-04 21:10 52.61118 10.01311 4999 ft 181 kts 158°
2026-05-04 21:11 52.59976 10.02175 4748 ft 180 kts 157°
2026-05-04 21:11 52.58850 10.02961 4492 ft 172 kts 165°
2026-05-04 21:11 52.57705 10.03381 4236 ft 166 kts 169°
2026-05-04 21:11 52.56584 10.03763 4100 ft 164 kts 169°
2026-05-04 21:12 52.55467 10.04141 3974 ft 164 kts 169°
2026-05-04 21:12 52.54350 10.04520 3845 ft 164 kts 169°
2026-05-04 21:12 52.53217 10.04663 3719 ft 163 kts 182°
2026-05-04 21:12 52.52085 10.04568 3595 ft 163 kts 184°
2026-05-04 21:13 52.50949 10.04450 3470 ft 163 kts 184°
2026-05-04 21:13 52.49832 10.04169 3334 ft 164 kts 203°
2026-05-04 21:13 52.48844 10.03246 3217 ft 164 kts 212°
2026-05-04 21:13 52.48010 10.01990 3087 ft 164 kts 231°
2026-05-04 21:14 52.47328 10.00492 2989 ft 162 kts 233°
2026-05-04 21:14 52.46684 9.99020 3000 ft 156 kts 234°
2026-05-04 21:14 52.46160 9.97491 2993 ft 154 kts 251°
2026-05-04 21:14 52.46030 9.95767 2998 ft 152 kts 267°
2026-05-04 21:15 52.46040 9.94038 2994 ft 151 kts 270°
2026-05-04 21:15 52.46071 9.92282 2859 ft 158 kts 271°
2026-05-04 21:15 52.46125 9.90439 2648 ft 163 kts 271°
2026-05-04 21:15 52.46177 9.88596 2435 ft 161 kts 272°
2026-05-04 21:16 52.46229 9.86768 2221 ft 160 kts 271°
2026-05-04 21:16 52.46279 9.84939 2004 ft 160 kts 271°
2026-05-04 21:16 52.46330 9.83113 1789 ft 160 kts 272°
2026-05-04 21:16 52.46380 9.81290 1570 ft 160 kts 272°
2026-05-04 21:17 52.46430 9.79476 1355 ft 159 kts 272°
2026-05-04 21:17 52.46480 9.77668 1139 ft 156 kts 272°
2026-05-04 21:17 52.46530 9.75935 930 ft 148 kts 272°
2026-05-04 21:17 52.46573 9.74410 736 ft 113 kts 270°
2026-05-04 21:18 52.46605 9.73260 585 ft 96 kts 269°
2026-05-04 21:18 52.46629 9.72235 476 ft 88 kts 268°
2026-05-04 21:18 52.46657 9.71253 361 ft 88 kts 267°
2026-05-04 21:18 52.46685 9.70274 211 ft 85 kts 269°
2026-05-04 21:19 52.46708 9.69376 170 ft 66 kts 269°
2026-05-04 21:19 52.46726 9.68742 170 ft 49 kts 272°
2026-05-04 21:19 52.46742 9.68264 171 ft 35 kts 273°
2026-05-04 21:19 52.46639 9.68163 172 ft 22 kts 143°
2026-05-04 21:20 52.46535 9.68298 173 ft 19 kts 136°
2026-05-04 21:20 52.46418 9.68449 173 ft 27 kts 146°
2026-05-04 21:20 52.46262 9.68633 173 ft 24 kts 142°
2026-05-04 21:20 52.46270 9.68848 173 ft 19 kts 67°
2026-05-04 21:21 52.46315 9.69039 173 ft 18 kts 68°
2026-05-04 21:21 52.46361 9.69222 173 ft 17 kts 72°
2026-05-04 21:21 52.46292 9.69283 173 ft 12 kts 221°
2026-05-04 21:21 52.46309 9.69260 173 ft 7 kts 143°